Location: Umburanas
(4.5000°S, 37.9667°W)
Time: 19:23:05
(UTC+00:00)

Cosmos 1470 Rocket - Pass Details

Date: 19 November 2019
Orbit: 604 x 633 km, 82.5° (Epoch: 11 December)

Event Time Altitude Azimuth Distance (km) Brightness Sun altitude
Rises 21:28:36 0° 347° (NNW) 2,897 6.9 -15.2°
Reaches altitude 10° 21:30:52 10° 343° (NNW) 1,990 6.1 -15.7°
Maximum altitude 21:35:10 52° 266° (W) 771 4.4 -16.7°
Drops below altitude 10° 21:39:27 10° 189° (S) 1,986 6.6 -17.7°
Sets 21:41:43 0° 184° (S) 2,890 7.4 -18.2°
